Other Public Products
Issued by NWS Grand Forks, ND

Home | Current Version | Previous Version | Text Only | Print | Product List | Glossary Off
Versions: 1 2 3 4 5 6 7 8 9 10 11 12 13 14 15 16 17 18 19 20 21 22 23 24 25 26 27 28 29 30 31 32 33 34 35 36 37 38 39 40 41 42 43 44 45 46 47 48 49 50

928
FPUS83 KFGF 202310
OPUFGF
PRAIRIE TO PINES WEATHER ROUNDUP
NATIONAL WEATHER SERVICE EASTERN NORTH DAKOTA/GRAND FORKS ND
600 PM CDT WED SEP 20 2017

 **SATELLITE DATA USED TO AUGMENT SKY COVER AT AUTOMATED STATIONS**
 *****  WEATHER ACROSS EASTERN NORTH DAKOTA  *****

CITY           SKY/WX    TMP DP  RH WIND       PRES   REMARKS
GRAND FORKS    FAIR      71  39  31 SW13      29.72R
GRAND FORKS AF FAIR      70  37  30 W10G21    29.73R
GRAND CITY NWS NOT AVBL
BUXTON         NOT AVBL
DEVILS LAKE    FAIR      67  38  34 SW20G26   29.71R
FARGO          FAIR      71  39  31 SW13      29.78R
WAHPETON ARPT  FAIR      68  37  32 S6        29.81S
$$

 *****  WEATHER ACROSS CENTRAL AND WESTERN NORTH DAKOTA  *****

CITY           SKY/WX    TMP DP  RH WIND       PRES   REMARKS
JAMESTOWN      FAIR      68  39  34 S15G22    29.74R
BISMARCK       FAIR      71  34  25 SW14      29.71R
MINOT          FAIR      70  33  25 SW22G29   29.62R
MINOT AFB      MOSUNNY   69  29  23 SW23G35   29.60R
GARRISON         N/A     68  32  26 SW24G31   29.65R
WILLISTON      FAIR      67  32  27 SW16G26   29.59S
DICKINSON      FAIR      68  27  21 SW18G26   29.65S
HETTINGER      FAIR      68  26  20 SW18      29.71R
$$

 *****  OTHER OBSERVATIONS NORTHEAST NORTH DAKOTA  *****

CITY           SKY/WX    TMP DP  RH WIND       PRES   REMARKS
WALHALLA       FAIR     N/A N/A N/A SW14G20   29.66R
LANGDON        FAIR      68  36  30 SW16G28   29.68R
CAVALIER       FAIR      68  39  34 SW14G26   29.67R
GRAFTON        FAIR      70  41  35 SW14G24   29.72R
CANDO          FAIR      68  34  28 SW20G29   29.69R
FORT TOTTEN      N/A     68  34  28 SW10      29.95S
ROLLA          FAIR      64  32  29 SW21G30   29.65R
RUGBY          FAIR      66  36  32 SW15G29   29.65R
 ***** THE ABOVE OBSERVATIONS ARE NON NWS ARE NOT QUALITY
        CONTROLLED AND MAY MIS-REPORT RAIN FOR SNOW...
$$

 *****  OTHER OBSERVATIONS SOUTHEAST NORTH DAKOTA *****

CITY           SKY/WX    TMP DP  RH WIND       PRES   REMARKS
COOPERSTOWN    FAIR      68  39  34 SW13      29.75R
VALLEY CITY    FAIR      68  39  34 S18       29.78R
OAKES          NOT AVBL
GWINNER        CLEAR     70  41  35 S9        29.79S
SHEYENNE NWR     N/A     70  41  35 SW12      29.95S
BUFFALO        NOT AVBL
WYNDMERE       NOT AVBL
 ***** THE ABOVE OBSERVATIONS ARE NON NWS ARE NOT QUALITY
       CONTROLLED AND MAY MIS-REPORT RAIN FOR SNOW...
$$

  *****  WEATHER ACROSS NORTHERN MINNESOTA  *****

CITY           SKY/WX    TMP DP  RH WIND       PRES   REMARKS
FLAG ISLAND    FAIR      66  39  37 SW9       29.72R
WARROAD        FAIR      66  43  42 SW8       29.74R
ROSEAU         FAIR      68  43  40 S15       29.73R
HALLOCK        CLOUDY    72  34  25 SW18      29.68R
THF RVR FALLS  FAIR      68  40  35 SW13G21   29.77R
HALSTAD        NOT AVBL
FOSSTON        FAIR      68  41  37 S14       29.80R
BAUDETTE       FAIR      66  41  40 SW10      29.76R
WASKISH        FAIR      64  45  48 SW7       29.80R
CROOKSTON      FAIR      70  39  32 SW14G21   29.75R
$$
  *****  WEATHER ACROSS CENTRAL AND WEST MINNESOTA  *****

CITY           SKY/WX    TMP DP  RH WIND       PRES   REMARKS
BEMIDJI        FAIR      65  40  39 SW9       29.82R
PARK RAPIDS    FAIR      66  44  45 S9        29.84R
WADENA         FAIR      66  41  39 SW6       29.84S
DETROIT LAKES  FAIR      68  39  34 SW7       29.84R
MOORHEAD       FAIR      70  39  32 S7        29.79S
FERGUS FALLS   FAIR      70  39  32 W6        29.81S
ELBOW LAKE     FAIR      67  43  41 S7        29.84S
MORRIS MN      FAIR      72  43  35 SW6       29.84R
STAPLES        NOT AVBL
WHEATON        FAIR      72  36  26 S6        29.84R
$$
  *****  WEATHER ELSEWHERE ACROSS MINNESOTA  *****

CITY           SKY/WX    TMP DP  RH WIND       PRES   REMARKS
DULUTH         FAIR      67  48  50 W10       29.83R
INTRNTL FALLS  FAIR      64  44  48 SW8       29.79R
ELY            FAIR      64  50  59 W3        29.83R
CLOQUET        FAIR      66  41  39 SW6       29.84R
BRAINERD       FAIR      67  41  38 W7        29.85R
HIBBING        FAIR      63  44  50 NW6       29.84R
ALEXANDRIA     FAIR      68  39  34 SW6       29.87R
SAINT CLOUD    FAIR      69  48  47 W8        29.86R
MINNEAPOLIS    FAIR      73  50  44 W7        29.85S
$$

  *****  WEATHER ACROSS SOUTH DAKOTA  *****

CITY           SKY/WX    TMP DP  RH WIND       PRES   REMARKS
SIOUX FALLS    FAIR      70  51  51 S6        29.86R
BROOKINGS      FAIR      71  42  35 SW8       29.86R
WATERTOWN      FAIR      68  43  40 S10       29.83R
HURON          FAIR      73  41  31 S10       29.80S
SISSETON         N/A     71  40  32 SW13      29.81R
ABERDEEN       FAIR      73  36  25 S10       29.78R
MITCHELL       FAIR      75  42  30 S9        29.82S
PIERRE         FAIR      75  23  14 SW15G21   29.74S
MOBRIDGE       FAIR      73  36  25 SW13      29.73R
RAPID CITY     SUNNY     73  28  19 W16G24    29.74S
$$

  *****  SOME WEATHER IN NEARBY STATES *****

CITY           SKY/WX    TMP DP  RH WIND       PRES   REMARKS
GLASGOW MT     FAIR      64  28  25 SW17G23   29.52F
GREAT FALLS MT FAIR      56  31  38 SW18      29.56R
CHEYENNE WY    FAIR      70  28  21 S17G24    29.89F
SCOTTSBLUFF NE FAIR      77  33  20 S10       29.81F
OMAHA NE       FAIR      79  51  37 NE9       29.84S
DES MOINES IA  PTSUNNY   84  65  52 N6        29.81R
DAVENPORT IA   FAIR      89  69  51 S13G20    29.81S HX  93
CHICAGO IL     FAIR      90  65  43 S23       29.85R HX  92
EAU CLAIRE WI  FAIR      74  59  59 W5        29.83R
LA CROSSE WI   PTSUNNY   79  64  61 NW14        N/A
$$

  *****  SOME NATIONAL WEATHER *****

CITY           SKY/WX    TMP DP  RH WIND       PRES   REMARKS
LA GUARDIA NY  MOCLDY    78  65  63 N16       29.89S
RALEIGH NC     FAIR      84  65  52 NE6       29.95R
ATLANTA GA     MOCLDY    82  65  56 W8        30.01R
NEW ORLEANS LA LGT RAIN  75  72  90 CALM      29.96F
OKLAHOMA CITY  FAIR      89  71  55 S16       29.80S HX  95
ALBUQUERQUE NM FAIR      84  20   9 NE5       29.97F
SALT LAKE CITY PTSUNNY   79  34  19 S18G28    29.69F
LOS ANGELES CA FAIR      73  62  68 W15       29.86F
BOISE ID       CLOUDY    53  48  83 NE8       29.73F
SEATTLE WA     PTSUNNY   56  47  71 SW10      29.75R
$$

*** WEATHER ACROSS MANITOBA...SASKATCHEWAN AND ONTARIO ***
                ***ONTARIO***

CITY           SKY/WX    TMP DP  RH WIND       PRES   REMARKS
GERALDTON      DRIZZLE   63  61  94 S12G20    29.78R
THUNDER BAY    MOCLDY    64  63  94 NE6       29.77R
SIOUX LOOKOUT  MOSUNNY   61  48  63 W6        29.76R
TORONTO        PTCLDY    73  63  68 SE6       30.02F
BIG TROUT LK   MOCLDY    57  57 100 S10G17    29.58F
PICKLE LAKE    PTCLDY    57  54  88 SW7       29.70R
DRYDEN         MOSUNNY   63  45  51 SW10      29.76R
KENORA         MOSUNNY   64  37  36 SW9       29.73R
$$
                *** MANITOBA***

CITY           SKY/WX    TMP DP  RH WIND       PRES   REMARKS
BRANDON        MOSUNNY   64  37  36 W18G28    29.58R
DAUPHIN        MOSUNNY   66  37  34 SW16G29   29.49R
ISLAND LAKE    MOSUNNY   55  46  71 SW3       29.52R
PILOT MOUND      N/A     64  34  32 SW20G25     N/A
THE PAS        CLOUDY    52  41  66 SW12G18   29.31R
THOMPSON       LGT RAIN  52  52 100 S5        29.27R
WINNIPEG       MOSUNNY   70  37  30 S18G31    29.62R
LYNN LAKE      RAIN      43  43 100 NE20G31   29.28S FOG
CHURCHILL      LGT RAIN  43  41  93 E25G40    29.70F
GILLAM         LGT RAIN  52  52 100 SE7       29.42S FOG
$$
                ***SASKATCHEWAN***

CITY           SKY/WX    TMP DP  RH WIND       PRES   REMARKS
ESTEVAN        PTSUNNY   63  30  29 SW17G26   29.57R
KINDERSLEY     MOSUNNY   57  28  33 W17G26    29.38R
LLOYDMINSTER   PTSUNNY   50  39  66 W7        29.36R
PRINCE ALBERT  PTSUNNY   57  37  47 W15       29.37R
REGINA         MOSUNNY   63  28  27 SW18G28   29.47S
YORKTON        MOSUNNY   63  32  31 SW21G28   29.46R



USA.gov is the U.S. government's official web portal to all federal, state and local government web resources and services.